DW7371 Weather Reports


Display with metric or nautical units.
time (UTC)temp
F
wind
direction
speed
MPH
gust
MPH
rain 1hr
in
rain 24hr
in
rain mn
in
humidity
%
barometer
mb
20260901003725 72 25 2.0 6.0 0.00 0.00 0.00 61 1006.8
20260901002720 71 5 2.0 6.0 0.00 0.00 0.00 61 1006.9
20260901001646 71 330 1.0 4.0 0.00 0.00 0.00 62 1007.0
20260901000706 70 20 2.0 4.0 0.00 0.00 0.00 62 1007.0
20260831235657 71 344 2.0 7.0 0.00 0.00 0.00 62 1007.2
20260831234626 70 349 3.0 8.0 0.00 0.00 0.00 61 1007.2
20260831233628 71 46 3.0 8.0 0.00 0.00 0.00 60 1007.3
20260831232618 71 42 3.0 7.0 0.00 0.00 0.00 61 1007.4
20260831231618 72 44 2.0 7.0 0.00 0.00 0.00 60 1007.6
20260831230626 71 345 3.0 7.0 0.00 0.00 0.00 62 1007.7
20260831224520 70 45 3.0 7.0 0.00 0.00 0.00 62 1008.1
20260831223526 71 38 4.0 8.0 0.00 0.00 0.00 61 1008.1
20260831222510 71 28 3.0 8.0 0.00 0.00 0.00 61 1008.2
20260831221458 70 53 4.0 7.0 0.00 0.00 0.00 62 1008.4
20260831215300 70 31 3.0 7.0 0.00 0.00 0.00 61 1008.6
20260831213114 71 49 3.0 9.0 0.00 0.00 0.00 60 1008.9
20260831212136 71 339 3.0 9.0 0.00 0.00 0.00 61 1009.1
20260831211140 71 340 3.0 9.0 0.00 0.00 0.00 61 1009.1
20260831210151 71 75 3.0 9.0 0.00 0.00 0.00 62 1009.2
20260831205157 70 74 4.0 10.0 0.00 0.00 0.00 61 1009.3
20260831204142 69 303 4.0 10.0 0.00 0.00 0.00 63 1009.4
20260831203108 68 63 4.0 9.0 0.00 0.00 0.00 63 1009.5
20260831202124 68 5 4.0 9.0 0.00 0.00 0.00 65 1009.8
20260831201132 69 44 3.0 9.0 0.00 0.00 0.00 63 1009.9
20260831200129 69 17 3.0 10.0 0.00 0.00 0.00 64 1010.0
20260831195103 68 336 3.0 10.0 0.00 0.00 0.00 66 1010.0
20260831194107 68 331 3.0 8.0 0.00 0.00 0.00 65 1010.1
20260831193033 67 333 2.0 6.0 0.00 0.00 0.00 66 1010.3
20260831190917 66 325 3.0 9.0 0.00 0.00 0.00 67 1010.6
20260831185941 65 56 4.0 9.0 0.00 0.00 0.00 69 1010.7
20260831183856 66 74 3.0 9.0 0.00 0.00 0.00 71 1010.9
20260831181724 65 346 3.0 8.0 0.00 0.00 0.00 72 1011.3
20260831175517 64 26 3.0 9.0 0.00 0.00 0.00 74 1011.3
20260831174508 63 37 2.0 7.0 0.00 0.00 0.00 74 1011.4
20260831173516 63 30 2.0 7.0 0.00 0.00 0.00 77 1011.5
20260831172523 63 328 2.0 6.0 0.00 0.00 0.00 76 1011.7
20260831171542 62 23 1.0 6.0 0.00 0.00 0.00 77 1011.7
20260831170550 62 67 1.0 7.0 0.00 0.00 0.00 78 1011.7
20260831164504 61 342 1.0 5.0 0.00 0.00 0.00 80 1011.8
20260831163457 61 336 0.0 1.0 0.00 0.00 0.00 83 1011.8
20260831162448 60 57 0.0 0.0 0.00 0.00 0.00 86 1011.8
20260831161445 59 49 1.0 2.0 0.00 0.00 0.00 87 1011.9
20260831160459 59 331 0.0 2.0 0.00 0.00 0.00 89 1011.9
20260831154254 56 40 0.0 1.0 0.00 0.00 0.00 93 1012.0
20260831153306 55 5 0.0 0.0 0.00 0.00 0.00 96 1012.1
20260831152318 54 35 0.0 0.0 0.00 0.00 0.00 97 1012.1
20260831151314 54 71 0.0 0.0 0.00 0.00 0.00 97 1012.1
20260831150258 53 116 0.0 0.0 0.00 0.00 0.00 97 1012.1
20260831145224 53 116 0.0 0.0 0.00 0.00 0.00 97 1012.1
20260831144239 52 116 0.0 0.0 0.00 0.00 0.00 97 1012.2
20260831143247 52 116 0.0 0.0 0.00 0.00 0.00 97 1012.1
20260831142306 51 116 0.0 0.0 0.00 0.00 0.00 97 1012.1
20260831141326 51 134 0.0 0.0 0.00 0.00 0.00 96 1012.1
20260831140348 51 167 0.0 0.0 0.00 0.00 0.00 96 1012.2
20260831135358 51 159 0.0 0.0 0.00 0.00 0.00 96 1012.0
20260831134408 51 159 0.0 0.0 0.00 0.00 0.00 96 1011.9
20260831133426 51 203 0.0 0.0 0.00 0.00 0.00 96 1012.0
20260831130116 51 203 0.0 0.0 0.00 0.00 0.00 96 1012.4
20260831125053 51 203 0.0 0.0 0.00 0.00 0.00 96 1012.4
20260831124105 51 203 0.0 0.0 0.00 0.00 0.00 96 1012.5
20260831123035 51 203 0.0 0.0 0.00 0.00 0.00 96 1012.6
20260831122024 52 203 0.0 0.0 0.00 0.00 0.00 96 1012.7
20260831121045 52 203 0.0 0.0 0.00 0.00 0.00 96 1012.8
20260831120023 52 203 0.0 0.0 0.00 0.00 0.00 96 1012.8
20260831114954 52 203 0.0 0.0 0.00 0.00 0.00 96 1012.8
20260831112748 52 161 0.0 0.0 0.00 0.00 0.00 96 1013.1
20260831110622 52 150 0.0 0.0 0.00 0.00 0.00 96 1013.1
20260831105622 52 150 0.0 0.0 0.00 0.00 0.00 95 1013.1
20260831104558 52 150 0.0 1.0 0.00 0.00 0.00 96 1013.2
20260831103609 52 150 0.0 1.0 0.00 0.00 0.00 95 1013.2
20260831102538 52 150 0.0 0.0 0.00 0.00 0.00 96 1013.2
20260831100330 52 150 0.0 0.0 0.00 0.00 0.00 96 1013.3
20260831095309 52 150 0.0 0.0 0.00 0.00 0.00 95 1013.5
20260831094249 52 150 0.0 0.0 0.00 0.00 0.00 96 1013.6
20260831093246 52 150 0.0 0.0 0.00 0.00 0.00 95 1013.7
20260831092259 52 150 0.0 0.0 0.00 0.00 0.00 95 1013.9
20260831091318 52 150 0.0 0.0 0.00 0.00 0.00 95 1013.9
20260831090254 52 150 0.0 0.0 0.00 0.00 0.00 95 1013.9
20260831084150 52 119 0.0 0.0 0.00 0.00 0.00 95 1014.2
20260831080803 52 119 0.0 0.0 0.00 0.00 0.00 94 1014.4
20260831074615 53 119 0.0 0.0 0.00 0.00 0.00 94 1014.5
20260831073550 53 119 0.0 0.0 0.00 0.00 0.00 93 1014.6
20260831072614 54 119 0.0 0.0 0.00 0.00 0.00 93 1014.8
20260831071626 54 119 0.0 0.0 0.00 0.00 0.00 94 1014.8
20260831070607 53 119 0.0 0.0 0.00 0.00 0.00 93 1014.9
20260831065603 54 119 0.0 0.0 0.00 0.00 0.00 92 1015.0
20260831064556 54 119 0.0 0.0 0.00 0.00 0.00 93 1014.9
20260831063550 54 119 0.0 0.0 0.00 0.00 0.00 93 1015.1
20260831062554 54 119 0.0 0.0 0.00 0.00 0.00 92 1015.1
20260831061551 54 119 0.0 0.0 0.00 0.00 0.00 92 1015.2
20260831060525 55 119 0.0 0.0 0.00 0.00 0.00 91 1015.2
20260831055501 55 119 0.0 0.0 0.00 0.00 0.00 91 1015.2
20260831054521 55 119 0.0 0.0 0.00 0.00 0.00 90 1015.3
20260831053516 55 119 0.0 0.0 0.00 0.00 0.00 90 1015.4
20260831052526 56 119 0.0 0.0 0.00 0.00 0.00 89 1015.4
20260831051540 56 147 0.0 0.0 0.00 0.00 0.00 90 1015.5
20260831050539 56 147 0.0 0.0 0.00 0.00 0.00 88 1015.6
20260831043231 57 147 0.0 0.0 0.00 0.00 0.00 87 1015.7
20260831042212 58 167 0.0 3.0 0.00 0.00 0.00 86 1015.8
20260831034931 59 153 0.0 0.0 0.00 0.00 0.00 84 1016.0
20260831033933 59 153 0.0 0.0 0.00 0.00 0.00 83 1015.9
20260831032911 59 134 0.0 0.0 0.00 0.00 0.00 83 1015.8
20260831031900 59 150 0.0 0.0 0.00 0.00 0.00 83 1015.8
20260831030918 60 185 0.0 1.0 0.00 0.00 0.00 81 1015.8
20260831025858 60 186 0.0 3.0 0.00 0.00 0.00 81 1015.8
20260831023709 61 158 0.0 1.0 0.00 0.00 0.00 78 1015.9
20260831022728 62 163 0.0 1.0 0.00 0.00 0.00 77 1016.0
20260831021703 62 173 0.0 3.0 0.00 0.00 0.00 76 1016.0
20260831020725 62 171 0.0 3.0 0.00 0.00 0.00 75 1016.1
20260831014625 62 169 0.0 3.0 0.00 0.00 0.00 73 1016.2
20260831013610 63 154 0.0 2.0 0.00 0.00 0.00 71 1016.2
20260831012552 63 137 1.0 0.0 0.00 0.00 0.00 70 1016.2
20260831011553 63 279 0.0 1.0 0.00 0.00 0.00 71 1016.3
20260831005447 63 281 0.0 5.0 0.00 0.00 0.00 73 1016.4
20260831004442 64 281 2.0 5.0 0.00 0.00 0.00 70 1016.4